Content
SEND FEEDBACK

Daily
Averages
Monthly
Summary
United States of America

MERIZO, GUAM


Home > North America > United States > Guam
Elevation: 10 feet     Latitude: 13 14N     Longitude: 144 39E

WEATHER
 
SELECT A DAY
Number of Records: 342,702;   Date Range: 1/1/95 - 9/21/14
 
SHARE

PRINT THIS DATA

[ ← Previous Day ]
WEATHER ALMANAC - DECEMBER 31, 2012
[ Next Day → ]
[ °C ]   °F
Weather ElementAverageHighLow
Temperature80.8 °F85.5 °F (11:55 am)77.9 °F (3:55 am)
Dewpoint75.4 °F77 °F (11:15 am)71.6 °F (12:22 am)
Humidity83.8 %94 % (7:44 pm)73 % (11:55 am)
Barometer29.80 in29.85 in (8:55 am)29.76 in (2:35 am)
Wind Speed16 mph19.6 mph (10:55 am)
Wind Gust24.2 mph (12:22 am)
Weather ElementAverage
Visibility10 mi
Wind DirectionENE (65.5 °)

Weather ElementTotal
Precipitation---
Cooling Degree Days16.7 (Base 65)
Growing Degree Days31.7 (Base 50)
Averaged from 143 records on December 31, 2012
WEATHER CONDITIONS BREAKOUT
WIND DIRECTION BREAKOUT
WEATHER BY HOUR - DECEMBER 31, 2012
[ °C ]   °F
Local TimeTemperatureDewpointHumidityBarometerVisibilityWind DirectionWind SpeedGust SpeedPrecipitationEventsConditions
12:22 AM78.8 °F71.6 °F78 %29.79 in10.0 miENE (70°)17.3 mph24.2 mphMostly Cloudy
12:34 AM78.8 °F71.6 °F78 %29.79 in10.0 miENE (70°)17.3 mphMostly Cloudy
12:55 AM79.3 °F72.9 °F80 %29.78 in10.0 miENE (70°)16.1 mphMostly Cloudy
1:09 AM78.8 °F73.4 °F83 %29.78 in10.0 miENE (70°)17.3 mph24.2 mphMostly Cloudy
1:55 AM79.0 °F73.0 °F82 %29.77 in10.0 miENE (70°)16.1 mphMostly Cloudy
2:35 AM78.8 °F73.4 °F83 %29.76 in10.0 miENE (70°)15.0 mphMostly Cloudy
2:55 AM79.0 °F74.1 °F85 %29.76 in10.0 miENE (70°)13.8 mphMostly Cloudy
3:13 AM78.8 °F73.4 °F83 %29.76 in10.0 miENE (70°)16.1 mph21.9 mphScattered Clouds
3:16 AM78.8 °F73.4 °F83 %29.76 in10.0 miENE (70°)16.1 mphMostly Cloudy
3:38 AM78.8 °F73.4 °F83 %29.76 in10.0 miENE (70°)16.1 mphMostly Cloudy
3:55 AM77.9 °F73.9 °F88 %29.76 in10.0 miENE (70°)12.7 mphMostly Cloudy
4:38 AM78.8 °F73.4 °F83 %29.77 in10.0 miEast (80°)17.3 mph23.0 mphMostly Cloudy
4:55 AM78.8 °F75.0 °F88 %29.77 in10.0 miENE (70°)13.8 mphMostly Cloudy
4:57 AM78.8 °F75.2 °F89 %29.77 in10.0 miENE (70°)13.8 mphMostly Cloudy
5:01 AM78.8 °F75.2 °F89 %29.78 in10.0 miENE (70°)15.0 mphMostly Cloudy
5:12 AM78.8 °F73.4 °F83 %29.78 in10.0 miENE (70°)17.3 mphMostly Cloudy
5:13 AM78.8 °F75.2 °F89 %29.78 in10.0 miENE (70°)17.3 mphScattered Clouds
5:17 AM78.8 °F75.2 °F89 %29.78 in10.0 miENE (70°)16.1 mphMostly Cloudy
5:19 AM78.8 °F75.2 °F89 %29.78 in10.0 miENE (70°)15.0 mphScattered Clouds
5:26 AM78.8 °F75.2 °F89 %29.78 in10.0 miENE (70°)13.8 mphMostly Cloudy
5:30 AM78.8 °F75.2 °F89 %29.78 in10.0 miEast (80°)16.1 mph23.0 mphScattered Clouds
5:55 AM79.2 °F73.8 °F83 %29.78 in10.0 miEast (80°)16.1 mphScattered Clouds
6:05 AM78.8 °F75.2 °F89 %29.79 in10.0 miENE (70°)15.0 mphMostly Cloudy
6:11 AM78.8 °F75.2 °F89 %29.79 in10.0 miENE (70°)12.7 mphMostly Cloudy
6:16 AM78.8 °F75.2 °F89 %29.79 in10.0 miENE (60°)13.8 mphMostly Cloudy
6:19 AM78.8 °F75.2 °F89 %29.79 in10.0 miENE (60°)13.8 mphMostly Cloudy
6:22 AM78.8 °F75.2 °F89 %29.79 in10.0 miENE (60°)16.1 mphMostly Cloudy
6:23 AM78.8 °F75.2 °F89 %29.79 in10.0 miENE (60°)15.0 mphMostly Cloudy
6:30 AM78.8 °F75.2 °F89 %29.80 in10.0 miENE (70°)13.8 mphMostly Cloudy
6:32 AM78.8 °F75.2 °F89 %29.80 in10.0 miENE (70°)16.1 mphMostly Cloudy
6:38 AM78.8 °F75.2 °F89 %29.80 in10.0 miENE (70°)16.1 mphMostly Cloudy
6:45 AM78.8 °F73.4 °F83 %29.80 in10.0 miENE (70°)16.1 mphScattered Clouds
6:55 AM78.8 °F72.5 °F81 %29.80 in10.0 miEast (80°)18.4 mphPartly Cloudy
7:22 AM80.6 °F73.4 °F79 %29.82 in10.0 miENE (70°)16.1 mphMostly Cloudy
7:23 AM80.6 °F73.4 °F79 %29.82 in10.0 miENE (60°)16.1 mphScattered Clouds
7:24 AM80.6 °F75.2 °F84 %29.82 in10.0 miENE (60°)16.1 mphMostly Cloudy
7:51 AM80.6 °F75.2 °F84 %29.83 in10.0 miENE (70°)17.3 mph24.2 mphScattered Clouds
7:55 AM80.8 °F74.3 °F81 %29.83 in10.0 miENE (70°)17.3 mph24.2 mphScattered Clouds
8:16 AM80.6 °F75.2 °F84 %29.83 in10.0 miENE (70°)18.4 mphMostly Cloudy
8:42 AM82.4 °F73.4 °F74 %29.84 in10.0 miENE (70°)18.4 mphScattered Clouds
8:55 AM81.9 °F74.3 °F78 %29.85 in10.0 miEast (80°)18.4 mphScattered Clouds
9:07 AM82.4 °F75.2 °F79 %29.85 in10.0 miENE (70°)18.4 mphMostly Cloudy
9:46 AM82.4 °F75.2 °F79 %29.85 in10.0 miENE (70°)18.4 mphScattered Clouds
9:55 AM82.8 °F74.8 °F77 %29.85 in10.0 miENE (70°)18.4 mphScattered Clouds
9:56 AM82.4 °F75.2 °F79 %29.85 in10.0 miENE (70°)17.3 mphMostly Cloudy
10:06 AM82.4 °F75.2 °F79 %29.85 in10.0 miEast (80°)17.3 mph23.0 mphScattered Clouds
10:13 AM84.2 °F75.2 °F74 %29.84 in10.0 miEast (80°)16.1 mph24.2 mphMostly Cloudy
10:25 AM82.4 °F75.2 °F79 %29.84 in10.0 miEast (80°)16.1 mphScattered Clouds
10:37 AM84.2 °F75.2 °F74 %29.83 in10.0 miENE (70°)16.1 mphMostly Cloudy
10:45 AM82.4 °F75.2 °F79 %29.83 in10.0 miENE (70°)17.3 mphScattered Clouds
10:46 AM82.4 °F75.2 °F79 %29.83 in10.0 miENE (70°)18.4 mphMostly Cloudy
10:48 AM82.4 °F75.2 °F79 %29.83 in10.0 miENE (70°)16.1 mphScattered Clouds
10:53 AM84.2 °F75.2 °F74 %29.83 in10.0 miENE (70°)18.4 mphMostly Cloudy
10:55 AM83.3 °F75.4 °F77 %29.83 in10.0 miENE (70°)19.6 mphMostly Cloudy
11:15 AM82.4 °F77.0 °F84 %29.83 in10.0 miENE (60°)16.1 mphMostly Cloudy
11:16 AM82.4 °F77.0 °F84 %29.83 in10.0 miENE (70°)16.1 mphMostly Cloudy
11:22 AM82.4 °F77.0 °F84 %29.82 in10.0 miENE (70°)17.3 mphScattered Clouds
11:29 AM84.2 °F77.0 °F79 %29.82 in10.0 miEast (80°)18.4 mph24.2 mphMostly Cloudy
11:31 AM84.2 °F77.0 °F79 %29.82 in10.0 miENE (70°)17.3 mph24.2 mphMostly Cloudy
11:34 AM84.2 °F77.0 °F79 %29.82 in10.0 miENE (70°)17.3 mph24.2 mphMostly Cloudy
11:36 AM84.2 °F77.0 °F79 %29.82 in10.0 miENE (70°)17.3 mph24.2 mphMostly Cloudy
11:55 AM85.5 °F75.7 °F73 %29.81 in10.0 miENE (70°)17.3 mphScattered Clouds
12:00 PM84.2 °F75.2 °F74 %29.81 in10.0 miENE (70°)15.0 mphMostly Cloudy
12:05 PM84.2 °F77.0 °F79 %29.81 in10.0 miENE (70°)18.4 mphScattered Clouds
12:41 PM84.2 °F75.2 °F74 %29.79 in10.0 miENE (70°)17.3 mphMostly Cloudy
12:55 PM83.7 °F75.4 °F76 %29.79 in10.0 miENE (70°)17.3 mphMostly Cloudy
1:43 PM84.2 °F75.2 °F74 %29.77 in10.0 miENE (70°)17.3 mphScattered Clouds
1:55 PM83.8 °F76.6 °F79 %29.77 in10.0 miENE (70°)15.0 mphScattered Clouds
1:57 PM84.2 °F77.0 °F79 %29.77 in10.0 miENE (60°)12.7 mphMostly Cloudy
2:05 PM84.2 °F77.0 °F79 %29.77 in10.0 miEast (80°)16.1 mphMostly Cloudy
2:31 PM84.2 °F75.2 °F74 %29.76 in10.0 miENE (70°)17.3 mphMostly Cloudy
2:38 PM84.2 °F75.2 °F74 %29.76 in10.0 miENE (70°)17.3 mphMostly Cloudy
2:50 PM84.2 °F77.0 °F79 %29.76 in10.0 miENE (70°)16.1 mphMostly Cloudy
2:54 PM84.2 °F75.2 °F74 %29.76 in10.0 miENE (70°)17.3 mphMostly Cloudy
2:55 PM83.3 °F76.1 °F79 %29.76 in10.0 miENE (70°)17.3 mphMostly Cloudy
3:01 PM82.4 °F75.2 °F79 %29.76 in10.0 miENE (60°)15.0 mphMostly Cloudy
3:17 PM84.2 °F77.0 °F79 %29.76 in9.0 miENE (70°)13.8 mphRainLight Rain
3:26 PM82.4 °F77.0 °F84 %29.76 in10.0 miENE (70°)13.8 mphMostly Cloudy
3:34 PM82.4 °F75.2 °F79 %29.76 in10.0 miENE (70°)16.1 mphMostly Cloudy
3:36 PM82.4 °F75.2 °F79 %29.76 in10.0 miENE (70°)16.1 mphMostly Cloudy
3:55 PM83.1 °F76.3 °F80 %29.76 in10.0 miNE (50°)17.3 mph0.00 inScattered Clouds
4:06 PM84.2 °F77.0 °F79 %29.76 in10.0 miENE (60°)13.8 mphMostly Cloudy
4:19 PM82.4 °F77.0 °F84 %29.76 in10.0 miENE (60°)17.3 mphLight Drizzle
4:20 PM82.4 °F77.0 °F84 %29.76 in10.0 miNE (50°)18.4 mphLight Drizzle
4:22 PM82.4 °F77.0 °F84 %29.76 in10.0 miENE (60°)16.1 mphLight Drizzle
4:29 PM80.6 °F75.2 °F84 %29.77 in10.0 miENE (60°)13.8 mphMostly Cloudy
4:32 PM80.6 °F75.2 °F84 %29.77 in10.0 miENE (60°)12.7 mphScattered Clouds
4:55 PM81.7 °F76.1 °F83 %29.77 in10.0 miENE (60°)15.0 mph0.00 inScattered Clouds
4:59 PM80.6 °F75.2 °F84 %29.77 in10.0 miENE (60°)13.8 mphMostly Cloudy
5:14 PM80.6 °F75.2 °F84 %29.78 in10.0 miENE (60°)16.1 mphMostly Cloudy
5:21 PM80.6 °F75.2 °F84 %29.78 in10.0 miENE (60°)15.0 mphMostly Cloudy
5:34 PM80.6 °F75.2 °F84 %29.78 in10.0 miENE (60°)15.0 mphMostly Cloudy
5:36 PM80.6 °F75.2 °F84 %29.78 in10.0 miNE (50°)15.0 mphMostly Cloudy
5:55 PM80.8 °F75.7 °F85 %29.78 in10.0 miNE (50°)15.0 mphMostly Cloudy
6:01 PM80.6 °F75.2 °F84 %29.79 in10.0 miENE (60°)15.0 mphScattered Clouds
6:07 PM80.6 °F75.2 °F84 %29.79 in10.0 miENE (60°)15.0 mphMostly Cloudy
6:12 PM80.6 °F75.2 °F84 %29.79 in10.0 miNE (50°)16.1 mphMostly Cloudy
6:13 PM80.6 °F75.2 °F84 %29.79 in10.0 miNE (50°)16.1 mphMostly Cloudy
6:15 PM80.6 °F75.2 °F84 %29.79 in10.0 miNE (50°)16.1 mphMostly Cloudy
6:16 PM80.6 °F75.2 °F84 %29.79 in10.0 miNE (50°)15.0 mphMostly Cloudy
6:19 PM80.6 °F77.0 °F89 %29.79 in10.0 miENE (60°)13.8 mphMostly Cloudy
6:55 PM79.9 °F75.6 °F87 %29.80 in10.0 miENE (60°)16.1 mphScattered Clouds
7:10 PM80.6 °F75.2 °F84 %29.81 in10.0 miNE (50°)16.1 mphMostly Cloudy
7:24 PM80.6 °F75.2 °F84 %29.81 in10.0 miENE (60°)16.1 mphMostly Cloudy
7:27 PM80.6 °F75.2 °F84 %29.81 in10.0 miENE (60°)15.0 mphMostly Cloudy
7:28 PM80.6 °F75.2 °F84 %29.81 in10.0 miNE (50°)16.1 mphMostly Cloudy
7:30 PM80.6 °F75.2 °F84 %29.81 in10.0 miENE (60°)16.1 mphLight Drizzle
7:31 PM80.6 °F75.2 °F84 %29.81 in9.0 miENE (60°)16.1 mphLight Drizzle
7:32 PM80.6 °F75.2 °F84 %29.81 in9.0 miENE (60°)16.1 mphLight Drizzle
7:33 PM80.6 °F75.2 °F84 %29.81 in9.0 miENE (60°)16.1 mphLight Drizzle
7:37 PM80.6 °F75.2 °F84 %29.81 in9.0 miENE (60°)15.0 mphLight Drizzle
7:38 PM80.6 °F75.2 °F84 %29.81 in9.0 miENE (60°)15.0 mphLight Drizzle
7:40 PM78.8 °F75.2 °F89 %29.81 in10.0 miENE (60°)15.0 mphMostly Cloudy
7:41 PM78.8 °F75.2 °F89 %29.81 in10.0 miENE (60°)13.8 mphScattered Clouds
7:44 PM78.8 °F77.0 °F94 %29.81 in10.0 miENE (60°)15.0 mphMostly Cloudy
7:45 PM78.8 °F77.0 °F94 %29.81 in10.0 miENE (60°)13.8 mphScattered Clouds
7:46 PM78.8 °F77.0 °F94 %29.81 in10.0 miENE (60°)15.0 mphMostly Cloudy
7:49 PM80.6 °F77.0 °F89 %29.81 in10.0 miNE (50°)17.3 mphMostly Cloudy
7:52 PM80.6 °F77.0 °F89 %29.81 in10.0 miENE (60°)15.0 mphMostly Cloudy
7:53 PM80.6 °F75.2 °F84 %29.82 in10.0 miENE (60°)15.0 mphMostly Cloudy
7:55 PM79.9 °F76.1 °F88 %29.82 in10.0 miENE (60°)16.1 mph0.00 inMostly Cloudy
8:19 PM78.8 °F77.0 °F94 %29.83 in10.0 miENE (60°)12.7 mphMostly Cloudy
8:22 PM78.8 °F77.0 °F94 %29.82 in10.0 miENE (60°)13.8 mphScattered Clouds
8:28 PM78.8 °F77.0 °F94 %29.82 in10.0 miENE (60°)11.5 mphMostly Cloudy
8:35 PM80.6 °F77.0 °F89 %29.82 in10.0 miENE (60°)16.1 mphMostly Cloudy
8:39 PM80.6 °F77.0 °F89 %29.83 in10.0 miENE (60°)19.6 mphMostly Cloudy
8:40 PM80.6 °F77.0 °F89 %29.83 in10.0 miENE (60°)18.4 mphRainLight Rain
8:49 PM78.8 °F75.2 °F89 %29.82 in10.0 miENE (60°)17.3 mphScattered Clouds
8:55 PM79.3 °F76.3 °F90 %29.83 in10.0 miENE (60°)15.0 mph0.00 inScattered Clouds
9:55 PM79.3 °F75.9 °F89 %29.83 in10.0 miENE (60°)16.1 mphScattered Clouds
9:57 PM78.8 °F75.2 °F89 %29.83 in10.0 miENE (60°)16.1 mphMostly Cloudy
10:13 PM80.6 °F77.0 °F89 %29.83 in10.0 miNE (50°)16.1 mph23.0 mphMostly Cloudy
10:23 PM78.8 °F75.2 °F89 %29.83 in10.0 miENE (70°)15.0 mphMostly Cloudy
10:25 PM78.8 °F75.2 °F89 %29.83 in10.0 miENE (70°)18.4 mph23.0 mphMostly Cloudy
10:28 PM78.8 °F75.2 °F89 %29.83 in10.0 miENE (70°)16.1 mph23.0 mphScattered Clouds
10:55 PM79.7 °F75.6 °F87 %29.82 in10.0 miENE (60°)17.3 mphPartly Cloudy
11:16 PM78.8 °F75.2 °F89 %29.82 in10.0 miENE (60°)15.0 mphMostly Cloudy
11:17 PM78.8 °F75.2 °F89 %29.82 in10.0 miENE (70°)12.7 mphMostly Cloudy
11:32 PM78.8 °F75.2 °F89 %29.81 in10.0 miENE (70°)17.3 mphMostly Cloudy
11:35 PM78.8 °F75.2 °F89 %29.81 in10.0 miENE (70°)16.1 mphScattered Clouds
11:37 PM78.8 °F75.2 °F89 %29.81 in10.0 miENE (70°)15.0 mphMostly Cloudy
11:38 PM78.8 °F75.2 °F89 %29.81 in10.0 miENE (70°)15.0 mphMostly Cloudy
11:55 PM79.7 °F76.3 °F89 %29.81 in10.0 miENE (70°)17.3 mphMostly Cloudy
Hourly data recorded from PGUA, located miles away from Merizo, Guam







STORIES FROM OUR PARTNERS